全球星 M031星 (GLOBALSTAR M031)

导读

GLOBALSTAR M031是全球星(GlobalStar)系统中的一颗通信卫星,由全球星项目研发,于1999年10月18日发射,国际标识为1999-058D,目录编号25946。全球星系统是美国主导的低轨全球个人卫星移动通信系统,该卫星运行于约1414km高度的近圆轨道,倾角52°,为南北纬70°以内区域提供移动通信服务,采用弯管式转发技术,支持语音与数据通信,是全球星星座组网的重要组成部分。

基本信息
目录编号:
25946
目录名称:
GLOBALSTAR M031
国际标识:
1999-058D
轨道中心:
EARTH
卫星名称:
全球星 M031星
卫星全名:
全球星 M031星 (GLOBALSTAR M031)
卫星状态:
在轨 (已飞行9825 天)
发射日期:
1999-10-18 UTC
国别 :
(GLOB)
星等 :
--
该卫星已列入 空间交会检测服务 Space Conjunction Data Service (SCDS) ,当前飞行风险评估等级: 无高风险
轨道信息
数据来源 国际轨道数据 AOE轨道数据
星历时间 2026-09-09T10:33:37+0800
2天前
查看轨道信息
2026-09-10T07:00:00+0800
1天前
查看轨道信息
半长轴 7987.905km 7987.904km
偏心率 0.0001335 0.0001397
轨道倾角 51.996° 51.995°
近地点辐角 23.965° 26.593°
升交点赤经 288.565° 286.188°
平近点角 352.137° 119.616°
近地点 1608.701km 1608.651km
远地点 1610.835km 1610.883km
周期 118.416分钟 118.416分钟
每日圈数 12.160558 12.16056
详细信息
固有亮度:
5
最大亮度:
7.9
平衡模式:
三轴稳定
覆盖范围:
全球
运营商:
全球星公司
运营商所在国:
美国
使用方式:
暂无
卫星简介
全球星星座由48颗卫星加8颗备份星组成。这些卫星分布在8个倾角为52度的圆形轨道平面上,每个轨道平面6颗卫星,另有1 颗备用星。轨道高度约为1414km,传输时延和处理时延小于300ms,整个系统的覆盖区为南北纬70度以内的地区。该卫星已退役。
2D轨道图
3D轨道图
轨道高度分析图
轨道倾角分析图
轨道综合分析图
查看轨道综合分析图
与全量物体交会距离演化趋势
与全量物体交会风险概率演化趋势